ARIANE 5 R/B, 42742

Orbit data source: Space-Track

ARIANE 5 R/B, 42742 is space debris in HEO originally from a launch on Thu, 01 Jun 2017 UTC launched from the French Guiana (FRGUI). Debris objects in space refer to the collection of defunct objects orbiting the Earth. Examples of debris include non-operational satellites, rocket bodies, and fragments generated from explosions, collisions, or faulty payload assembly.

Loading next visibility...
Identifier
42742, 2017-029C
Orbit
HEO
Country
Flag of FRFR
Related business
Manufacturer
Airbus Safran
Mission
Spacecraft
Bus & Motor
ESC-A, Unknown motor
Mass
~5,000 kg wet, ~5,000 kg dry
Launch date (UTC)
2017-06-01 (9 years ago)
Launch vehicle
Unknown
Launch site
French Guiana (FRGUI)
Object type
Payload
Rocket body
Debris
Shape & HBR
Cyl + 1 Nozzle, 3.5 m
Radar Cross Section
41.627 m², Large (>1 m²)

Expand to show TLE details & history
Last TLE update: 2 days ago

TLE from 2 days ago
0 ARIANE 5 R/B
1 42742U 17029C   26171.31324514  .00000682  00000-0  71255-3 0  9997
2 42742   5.7034 129.6532 7180365  31.3659 356.1112  2.36699660 76408
Epoch: 2026-06-20T07:31Z
TLE epoch observation values (Epoch: 2026-06-20T07:31:04.380Z)
Latitude
0.00003°
Longitude
108.12999°
Altitude
784.234 km
Speed
9.723 km/s
True Right ascension
08h 37m 42s
True Declination
0° 00' 00"
Sunlit
Object was in daylight at epoch
Visualization orbit readout
Latitude
Unknown
Longitude
Unknown
Altitude
Unknown
Speed
Unknown
Apparent Right ascension
Unknown
Apparent Declination
Unknown
Sunlit
N/A
Visualization observer readout
Local Sidereal Time
21:50:08
Azimuth
Unknown
Elevation
Unknown
Doppler factor
Unknown
Orbital elements
Apogee altitude
34,491.572 km
Perigee altitude
329.384 km
Semi-major axis
23,788.615 km
Eccentricity
0.71804
Inclination
5.7034°
RAAN
129.6532°
Arg. of periapsis
31.3659°
True anomaly
327.48244°
Mean anomaly
356.1112°
Eccentric anomaly
346.52369°
Mean motion
0.59155 °/min
Orbital period
608.57 mins
BSTAR
0.00071255
Loading maneuver chart data...
Computing Atmospheric mass density...
Loading historical data...
Loading historical data...
Loading historical data...
Loading historical data...
Loading historical data...
Loading historical data...
Loading historical data...
Other satellites on launch #29 in the year 2017 (2017-06-01 UTC)

Documentation

Showing up to 5 results
|